Flag for Myanmar Weather past 2 weeks in Mandalay, Myanmar

Now
70 °F

Passing clouds.


Feels Like: 70 °F
Forecast: 74 / 98 °F
Wind: No wind

Location: Chiang Mai Airport

Current Time: Mar 28, 2015 at 5:29:32 AM

Latest Report: Mar 28, 2015 at 4:30 AM


Visibility: N/A

Pressure: 30.04 "Hg

Humidity: 83%

Dew point: 64 °F

Location of MandalayLocation

Historic Weather in Mandalay — Graph

°F

Mandalay temperature yesterday

Maximum temperature yesterday: 88 °F (at 2:30 PM)
Minimum temperature yesterday: 72 °F (at 4:30 AM)
Average temperature yesterday: 79 °F

Past Weeks' High & Low Weather Summary

 TemperatureHumidityPressure
High102 °F (Mar 21, 3:30 PM)88% (Mar 24, 4:30 PM)30.18 "Hg (Mar 24, 4:30 PM)
Low66 °F (Mar 14, 6:00 AM)12% (Mar 14, 4:30 PM)29.74 "Hg (Mar 17, 3:30 PM)
Average82 °F47%29.94 "Hg
* Reported Mar 13 4:00 AM — Mar 28 3:30 AM, Mandalay, Weather by CustomWeather, © 2015

Note: Actual official high and low records may vary slightly from our data, if they occured in-between our weather recording intervals... More about our weather records

Advertising

Mandalay weather history for previous 24 hours

 ConditionsComfort  
Time TempWeatherWind HumidityBarometerVisibility
3:30 AM
Sat, Mar 28
72 °FPassing clouds.No wind78%30.01 "HgN/A
2:30 AM70 °FPassing clouds.No wind78%30.01 "HgN/A
1:30 AM73 °FPassing clouds.No wind74%30.04 "HgN/A
12:30 AM73 °FPassing clouds.No wind74%30.04 "HgN/A
12:00 AM73 °FPassing clouds.3 mph74%30.07 "HgN/A
11:30 PM
Fri, Mar 27
73 °FPassing clouds.No wind74%30.07 "HgN/A
11:00 PM75 °FPassing clouds.2 mph65%30.07 "HgN/A
10:30 PM75 °FPassing clouds.6 mph65%30.07 "HgN/A
10:00 PM73 °FPassing clouds.6 mph74%30.07 "HgN/A
9:30 PM75 °FPassing clouds.6 mph65%30.07 "HgN/A
9:00 PM77 °FPassing clouds.6 mph57%30.04 "HgN/A
6:30 PM81 °FPassing clouds.6 mph48%30.01 "HgN/A
6:00 PM84 °FScattered clouds.7 mph43%30.01 "HgN/A
5:30 PM86 °FScattered clouds.5 mph43%29.98 "HgN/A
5:00 PM86 °FScattered clouds.6 mph40%29.98 "HgN/A
4:30 PM86 °FPartly sunny.6 mph40%29.98 "HgN/A
4:00 PM88 °FScattered clouds.7 mph35%29.98 "HgN/A
3:30 PM88 °FScattered clouds.5 mph35%29.98 "HgN/A
3:00 PM88 °FPassing clouds.3 mph38%29.98 "HgN/A
2:30 PM88 °FPassing clouds.3 mph40%30.01 "HgN/A
2:00 PM86 °FPassing clouds.5 mph43%30.01 "HgN/A
1:30 PM86 °FPassing clouds.7 mph46%30.04 "HgN/A
1:00 PM86 °FPassing clouds.5 mph43%30.07 "HgN/A
12:30 PM84 °FPassing clouds.5 mph48%30.09 "HgN/A
12:00 PM84 °FPassing clouds.6 mph45%30.09 "HgN/A
11:30 AM84 °FPassing clouds.5 mph45%30.12 "HgN/A
11:00 AM82 °FPassing clouds.5 mph51%30.15 "HgN/A
10:30 AM81 °FPassing clouds.5 mph54%30.15 "HgN/A
9:30 AM75 °FScattered clouds.6 mph65%30.18 "HgN/A
9:00 AM75 °FScattered clouds.5 mph69%30.18 "HgN/A
8:30 AM73 °FScattered clouds.2 mph74%30.18 "HgN/A
8:00 AM75 °FPartly sunny.1 mph74%30.18 "HgN/A
7:00 AM72 °FPartly sunny.2 mph78%30.15 "HgN/A
6:30 AM72 °FPartly sunny.3 mph83%30.12 "HgN/A
6:00 AM72 °FPartly sunny.5 mph78%30.12 "HgN/A
5:30 AM72 °FLight rain. Passing clouds.3 mph83%30.12 "Hg5 mi
5:00 AM72 °FLight rain. Passing clouds.3 mph88%30.09 "Hg5 mi
Weather by CustomWeather, © 2015

See weather overviewHow to use our weather pages